Starlink 33716

operational
NORAD ID: 63486 Int'l Des: 2025-070 Owner: SPXS Country: US Constellation: starlink
LEOCIRCULAR

Starlink 33716について

説明を読み込み中...

リアルタイム位置

3D地球を読み込み中...

次回通過

高度履歴

Altitude vs Time

uPlot chart will show altitude changes over time

軌道要素

1 63486U 25070AC 26062.05391458 .00024570 00000-0 89908-3 0 9997
2 63486 43.0006 297.0952 0001333 275.2094 84.8605 15.27591272 51968
Epoch: Mar 3, 2026 • Age: 25 hours

現在のステータス

高度 492.5 km
速度 7.62 km/s
衛星直下点 -36.32°S, 69.62°E
打ち上げ日 Apr 6, 2025
運用期間 0.9 years
タイプ internet

技術仕様

分類 Payload
質量 575.00 kg
乾燥質量 530.00 kg
総質量 575.00 kg
長さ 0.30 m
直径 4.10 m
スパン 29.00 m
形状 Box + pan
製造者 SPXS
バスタイプ Starlink V2MO
フェーズステータス In Orbit
所有者/国 SPXS/US

大規模コンステレーション

Loading constellations...